K5OBH Weather Reports


time (UTC)temp
C
wind
direction
speed
KPH
gust
KPH
rain 1hr
cm
rain 24hr
cm
rain mn
cm
humidity
%
barometer
mb
20260906205415 38 246 6.4 14.5 0.00 0.00 0.00 37 1012.8
20260906204910 37 124 6.4 16.1 0.00 0.00 0.00 37 1013.1
20260906204409 38 194 4.8 8.0 0.00 0.00 0.00 37 1013.2
20260906203909 37 165 1.6 9.7 0.00 0.00 0.00 37 1013.1
20260906203405 37 216 4.8 9.7 0.00 0.00 0.00 37 1013.2
20260906202902 36 148 4.8 9.7 0.00 0.00 0.00 39 1013.4
20260906202401 36 93 1.6 9.7 0.00 0.00 0.00 39 1013.2
20260906201901 38 140 6.4 14.5 0.00 0.00 0.00 39 1013.4
20260906201355 37 162 4.8 8.0 0.00 0.00 0.00 38 1013.5
20260906200851 37 97 8.0 14.5 0.00 0.00 0.00 38 1013.3
20260906200348 37 187 11.3 12.9 0.00 0.00 0.00 38 1013.5
20260906195841 37 250 1.6 3.2 0.00 0.00 0.00 38 1013.5
20260906195338 38 131 8.0 14.5 0.00 0.00 0.00 39 1013.5
20260906194834 38 126 4.8 9.7 0.00 0.00 0.00 38 1013.7
20260906194329 37 76 4.8 14.5 0.00 0.00 0.00 39 1013.8
20260906193824 37 124 8.0 12.9 0.00 0.00 0.00 39 1013.7
20260906193319 38 238 4.8 8.0 0.00 0.00 0.00 38 1013.8
20260906192816 37 153 6.4 14.5 0.00 0.00 0.00 39 1013.8
20260906192315 37 253 3.2 9.7 0.00 0.00 0.00 41 1014.1
20260906191814 37 235 3.2 9.7 0.00 0.00 0.00 39 1013.8
20260906191309 37 77 8.0 16.1 0.00 0.00 0.00 39 1014.4
20260906190803 37 114 6.4 20.9 0.00 0.00 0.00 39 1014.1
20260906190257 37 127 4.8 11.3 0.00 0.00 0.00 39 1014.4
20260906185757 37 93 6.4 14.5 0.00 0.00 0.00 41 1014.4
20260906185256 35 76 0.0 3.2 0.00 0.00 0.00 43 1014.4
20260906184751 35 60 4.8 9.7 0.00 0.00 0.00 43 1014.5
20260906184246 35 212 8.0 11.3 0.00 0.00 0.00 43 1014.6
20260906183742 35 69 4.8 8.0 0.00 0.00 0.00 43 1014.7
20260906183238 35 142 1.6 11.3 0.00 0.00 0.00 42 1014.8
20260906182737 35 126 12.9 14.5 0.00 0.00 0.00 43 1014.7
20260906182234 37 358 8.0 17.7 0.00 0.00 0.00 42 1014.8
20260906181728 36 1 1.6 4.8 0.00 0.00 0.00 42 1014.8
20260906181225 35 185 1.6 3.2 0.00 0.00 0.00 43 1014.9
20260906180725 35 182 3.2 8.0 0.00 0.00 0.00 45 1015.1
20260906180220 36 195 6.4 12.9 0.00 0.00 0.00 44 1015.0
20260906175718 36 190 11.3 16.1 0.00 0.00 0.00 43 1015.2
20260906175214 36 254 4.8 11.3 0.00 0.00 0.00 43 1015.2
20260906174712 36 214 0.0 3.2 0.00 0.00 0.00 42 1015.3
20260906174206 37 99 4.8 8.0 0.00 0.00 0.00 42 1015.5
20260906173702 36 61 4.8 11.3 0.00 0.00 0.00 42 1015.5
20260906173157 35 214 4.8 9.7 0.00 0.00 0.00 45 1015.4
20260906172656 35 199 12.9 16.1 0.00 0.00 0.00 46 1015.7
20260906172152 35 196 8.0 12.9 0.00 0.00 0.00 46 1015.6
20260906171652 36 272 0.0 3.2 0.00 0.00 0.00 44 1015.8
20260906171147 36 188 8.0 11.3 0.00 0.00 0.00 43 1016.2
20260906170643 35 81 1.6 16.1 0.00 0.00 0.00 44 1016.1
20260906170143 36 53 1.6 3.2 0.00 0.00 0.00 44 1016.0
20260906165639 35 12 0.0 8.0 0.00 0.00 0.00 45 1015.9
20260906165135 35 221 6.4 9.7 0.00 0.00 0.00 46 1016.2
20260906164633 35 206 9.7 12.9 0.00 0.00 0.00 46 1016.3
20260906164129 35 9 3.2 4.8 0.00 0.00 0.00 45 1016.3
20260906163625 35 341 1.6 8.0 0.00 0.00 0.00 46 1016.4
20260906163120 35 220 6.4 9.7 0.00 0.00 0.00 45 1016.3
20260906162618 35 195 8.0 9.7 0.00 0.00 0.00 47 1016.3
20260906162112 35 187 4.8 4.8 0.00 0.00 0.00 47 1016.2
20260906161612 35 170 4.8 8.0 0.00 0.00 0.00 47 1016.2
20260906161111 34 342 1.6 3.2 0.00 0.00 0.00 48 1016.4
20260906160610 33 246 1.6 8.0 0.00 0.00 0.00 50 1016.1
20260906160109 33 297 4.8 8.0 0.00 0.00 0.00 52 1016.2
20260906155607 33 225 1.6 8.0 0.00 0.00 0.00 52 1016.2
20260906155103 33 319 0.0 4.8 0.00 0.00 0.00 52 1016.3
20260906154558 33 249 3.2 4.8 0.00 0.00 0.00 52 1016.2
20260906154057 32 212 3.2 8.0 0.00 0.00 0.00 54 1016.3
20260906153556 32 195 1.6 3.2 0.00 0.00 0.00 54 1016.0
20260906153052 31 225 1.6 4.8 0.00 0.00 0.00 56 1016.2
20260906152551 31 234 4.8 8.0 0.00 0.00 0.00 56 1016.0
20260906152051 31 193 3.2 3.2 0.00 0.00 0.00 56 1016.1
20260906151546 31 284 3.2 4.8 0.00 0.00 0.00 56 1016.0
20260906151042 31 242 1.6 8.0 0.00 0.00 0.00 56 1015.9
20260906150537 31 193 6.4 8.0 0.00 0.00 0.00 56 1016.0
20260906150032 31 237 8.0 9.7 0.00 0.00 0.00 57 1015.8
20260906145531 31 227 6.4 8.0 0.00 0.00 0.00 57 1015.9
20260906145026 31 249 6.4 9.7 0.00 0.00 0.00 57 1015.8
20260906144520 30 224 8.0 9.7 0.00 0.00 0.00 59 1015.9
20260906144016 30 243 8.0 9.7 0.00 0.00 0.00 58 1015.9
20260906143510 30 219 4.8 9.7 0.00 0.00 0.00 59 1016.0
20260906143008 30 208 6.4 12.9 0.00 0.00 0.00 60 1015.8
20260906142507 30 235 6.4 9.7 0.00 0.00 0.00 60 1016.0
20260906142003 30 220 1.6 8.0 0.00 0.00 0.00 60 1015.9
20260906141501 29 212 4.8 8.0 0.00 0.00 0.00 61 1015.8
20260906140956 29 211 6.4 8.0 0.00 0.00 0.00 61 1016.0
20260906140450 28 247 4.8 11.3 0.00 0.00 0.00 62 1015.9
20260906135948 28 184 6.4 8.0 0.00 0.00 0.00 62 1015.6
20260906135447 28 214 6.4 9.7 0.00 0.00 0.00 62 1015.7
20260906134943 28 220 4.8 9.7 0.00 0.00 0.00 63 1015.8
20260906134438 28 205 6.4 11.3 0.00 0.00 0.00 63 1015.7
20260906133933 28 230 4.8 8.0 0.00 0.00 0.00 64 1015.5
20260906133429 28 208 6.4 8.0 0.00 0.00 0.00 63 1015.7
20260906132925 27 198 3.2 4.8 0.00 0.00 0.00 64 1015.8
20260906132419 27 214 3.2 4.8 0.00 0.00 0.00 65 1015.8
20260906131915 27 189 4.8 4.8 0.00 0.00 0.00 66 1015.6
20260906131410 27 235 1.6 3.2 0.00 0.00 0.00 67 1015.7
20260906130906 26 225 3.2 4.8 0.00 0.00 0.00 67 1015.2
20260906130405 26 211 3.2 3.2 0.00 0.00 0.00 68 1015.4
20260906125904 26 201 1.6 1.6 0.00 0.00 0.00 69 1015.5
20260906125401 26 220 0.0 0.0 0.00 0.00 0.00 70 1015.3
20260906124856 25 264 0.0 0.0 0.00 0.00 0.00 70 1015.1
20260906124352 25 268 0.0 0.0 0.00 0.00 0.00 70 1015.2
20260906123851 25 274 0.0 1.6 0.00 0.00 0.00 71 1015.2
20260906123346 25 261 1.6 1.6 0.00 0.00 0.00 71 1015.1
20260906122841 25 213 0.0 1.6 0.00 0.00 0.00 71 1015.1
20260906122341 25 211 0.0 1.6 0.00 0.00 0.00 71 1015.2
20260906121838 25 303 0.0 0.0 0.00 0.00 0.00 70 1015.0
20260906121333 25 263 0.0 0.0 0.00 0.00 0.00 70 1015.0
20260906120830 25 255 0.0 0.0 0.00 0.00 0.00 71 1014.8
20260906120325 25 230 0.0 0.0 0.00 0.00 0.00 70 1014.8
20260906115821 25 208 0.0 1.6 0.00 0.00 0.00 70 1014.8
20260906115316 25 227 1.6 3.2 0.00 0.00 0.00 70 1014.7
20260906114816 25 241 0.0 0.0 0.00 0.00 0.00 69 1014.6
20260906114312 25 251 0.0 0.0 0.00 0.00 0.00 70 1014.6
20260906113812 25 290 0.0 0.0 0.00 0.00 0.00 70 1014.7
20260906113311 25 294 0.0 0.0 0.00 0.00 0.00 69 1014.6
20260906112806 25 181 1.6 3.2 0.00 0.00 0.00 69 1014.6
20260906112257 25 260 0.0 0.0 0.00 0.00 0.00 69 1014.5
20260906111757 25 305 0.0 0.0 0.00 0.00 0.00 68 1014.5
20260906111256 25 305 0.0 0.0 0.00 0.00 0.00 69 1014.5
20260906110752 25 324 0.0 0.0 0.00 0.00 0.00 69 1014.3
20260906110247 25 300 0.0 0.0 0.00 0.00 0.00 68 1014.3
20260906105746 25 276 0.0 1.6 0.00 0.00 0.00 68 1013.8
20260906105242 25 237 0.0 1.6 0.00 0.00 0.00 67 1014.2
20260906104737 26 229 0.0 1.6 0.00 0.00 0.00 67 1014.0
20260906104236 26 259 0.0 3.2 0.00 0.00 0.00 67 1014.0
20260906103734 26 274 0.0 1.6 0.00 0.00 0.00 67 1014.1
20260906103233 26 249 1.6 4.8 0.00 0.00 0.00 66 1014.1
20260906102730 26 207 3.2 3.2 0.00 0.00 0.00 66 1014.2
20260906102229 26 151 3.2 8.0 0.00 0.00 0.00 66 1014.1
20260906101724 26 211 4.8 4.8 0.00 0.00 0.00 66 1013.8
20260906101219 26 215 3.2 4.8 0.00 0.00 0.00 65 1014.0
20260906100715 26 198 4.8 4.8 0.00 0.00 0.00 65 1013.8
20260906100214 26 222 1.6 3.2 0.00 0.00 0.00 65 1014.2
20260906095714 26 238 3.2 4.8 0.00 0.00 0.00 65 1014.3
20260906095210 26 193 4.8 4.8 0.00 0.00 0.00 65 1014.2
20260906094708 26 208 4.8 4.8 0.00 0.00 0.00 65 1014.4
20260906094204 26 222 1.6 1.6 0.00 0.00 0.00 65 1014.1
20260906093701 26 208 1.6 1.6 0.00 0.00 0.00 66 1014.1
20260906093156 26 292 0.0 0.0 0.00 0.00 0.00 66 1014.1
20260906092651 26 288 0.0 0.0 0.00 0.00 0.00 67 1014.3
20260906092150 25 291 0.0 0.0 0.00 0.00 0.00 68 1014.4
20260906091647 25 311 0.0 0.0 0.00 0.00 0.00 68 1014.1
20260906091143 25 295 0.0 0.0 0.00 0.00 0.00 68 1014.3
20260906090639 25 314 0.0 0.0 0.00 0.00 0.00 69 1014.3
20260906090133 25 314 0.0 0.0 0.00 0.00 0.00 68 1014.3
20260906085631 25 314 0.0 0.0 0.00 0.00 0.00 68 1014.3
20260906085126 25 314 0.0 0.0 0.00 0.00 0.00 69 1014.2
20260906084620 25 314 0.0 0.0 0.00 0.00 0.00 68 1013.8
20260906084119 26 314 0.0 0.0 0.00 0.00 0.00 66 1013.7
20260906083615 26 313 0.0 0.0 0.00 0.00 0.00 65 1013.8
20260906083115 26 302 0.0 0.0 0.00 0.00 0.00 65 1014.0
20260906082610 26 275 0.0 0.0 0.00 0.00 0.00 65 1014.1
20260906082106 26 315 0.0 0.0 0.00 0.00 0.00 66 1014.1
20260906081601 26 315 0.0 0.0 0.00 0.00 0.00 67 1014.1
20260906081056 26 315 0.0 0.0 0.00 0.00 0.00 67 1014.2
20260906080553 26 315 0.0 0.0 0.00 0.00 0.00 66 1014.2
20260906080049 26 315 0.0 0.0 0.00 0.00 0.00 66 1014.0
20260906075549 26 315 0.0 0.0 0.00 0.00 0.00 67 1014.1
20260906075044 26 315 0.0 0.0 0.00 0.00 0.00 67 1014.0
20260906074538 26 315 0.0 0.0 0.00 0.00 0.00 66 1014.1
20260906074037 26 315 0.0 0.0 0.00 0.00 0.00 66 1014.2
20260906073532 26 315 0.0 0.0 0.00 0.00 0.00 66 1014.1
20260906073028 26 315 0.0 0.0 0.00 0.00 0.00 65 1013.8
20260906072523 26 315 0.0 0.0 0.00 0.00 0.00 65 1013.8
20260906072019 26 315 0.0 0.0 0.00 0.00 0.00 63 1014.0
20260906071515 27 315 0.0 0.0 0.00 0.00 0.00 63 1013.8
20260906071010 27 315 0.0 0.0 0.00 0.00 0.00 62 1014.0
20260906070507 27 315 0.0 0.0 0.00 0.00 0.00 61 1014.0
20260906070002 27 315 0.0 0.0 0.00 0.00 0.00 60 1014.0
20260906065501 27 315 0.0 0.0 0.00 0.00 0.00 60 1013.8
20260906064957 27 310 0.0 0.0 0.00 0.00 0.00 59 1013.7
20260906064453 28 279 0.0 0.0 0.00 0.00 0.00 58 1013.8
20260906063954 28 272 0.0 0.0 0.00 0.00 0.00 58 1013.8
20260906063450 28 286 0.0 0.0 0.00 0.00 0.00 58 1013.8
20260906062949 28 281 0.0 0.0 0.00 0.00 0.00 57 1014.1
20260906062444 28 239 0.0 1.6 0.00 0.00 0.00 57 1014.2
20260906061939 28 249 0.0 1.6 0.00 0.00 0.00 57 1014.1
20260906061435 28 277 0.0 0.0 0.00 0.00 0.00 57 1014.2
20260906060929 28 305 0.0 0.0 0.00 0.00 0.00 58 1014.1
20260906060427 28 298 0.0 0.0 0.00 0.00 0.00 57 1013.8
20260906055923 28 254 0.0 0.0 0.00 0.00 0.00 57 1014.1
20260906055418 28 278 0.0 1.6 0.00 0.00 0.00 56 1014.0
20260906054914 28 276 1.6 1.6 0.00 0.00 0.00 56 1014.2
20260906054408 28 264 0.0 3.2 0.00 0.00 0.00 56 1014.3
20260906053904 28 266 0.0 1.6 0.00 0.00 0.00 56 1014.1
20260906053400 28 262 0.0 1.6 0.00 0.00 0.00 56 1013.7
20260906052855 28 258 1.6 3.2 0.00 0.00 0.00 55 1013.7
20260906052352 29 248 1.6 3.2 0.00 0.00 0.00 55 1013.8
20260906051849 28 242 0.0 1.6 0.00 0.00 0.00 56 1014.0
20260906051348 29 221 1.6 1.6 0.00 0.00 0.00 55 1013.7
20260906050845 29 224 1.6 3.2 0.00 0.00 0.00 55 1013.6
20260906050339 29 202 1.6 3.2 0.00 0.00 0.00 55 1013.6
20260906045838 29 206 3.2 4.8 0.00 0.00 0.00 54 1013.6
20260906045332 30 188 3.2 4.8 0.00 0.00 0.00 53 1013.7
20260906044829 30 220 3.2 4.8 0.00 0.00 0.00 53 1013.5
20260906044329 30 221 4.8 8.0 0.00 0.00 0.00 53 1013.8
20260906043826 30 203 3.2 4.8 0.00 0.00 0.00 53 1013.8
20260906043321 30 246 0.0 3.2 0.00 0.00 0.00 53 1014.0
20260906042820 30 234 1.6 3.2 0.00 0.00 0.00 52 1013.5
20260906042319 30 227 1.6 4.8 0.00 0.00 0.00 52 1013.6
20260906041815 30 211 1.6 3.2 0.00 0.00 0.00 52 1013.6
20260906041310 30 170 4.8 8.0 0.00 0.00 0.00 52 1013.6
20260906040805 30 221 1.6 3.2 0.00 0.00 0.00 52 1013.8
20260906040301 30 225 3.2 3.2 0.00 0.00 0.00 52 1013.6
20260906035756 30 219 3.2 4.8 0.00 0.00 0.00 51 1013.8
20260906035252 30 238 1.6 4.8 0.00 0.00 0.00 51 1013.7
20260906034751 30 199 1.6 3.2 0.00 0.00 0.00 51 1013.7
20260906034246 30 177 3.2 4.8 0.00 0.00 0.00 51 1013.6
20260906033742 30 200 4.8 4.8 0.00 0.00 0.00 51 1013.7
20260906033241 31 183 3.2 4.8 0.00 0.00 0.00 50 1013.5
20260906032738 31 197 1.6 4.8 0.00 0.00 0.00 50 1013.6
20260906032238 31 194 4.8 8.0 0.00 0.00 0.00 50 1013.4
20260906031733 31 220 3.2 8.0 0.00 0.00 0.00 49 1013.6
20260906031229 31 200 3.2 4.8 0.00 0.00 0.00 48 1013.5
20260906030729 31 211 1.6 3.2 0.00 0.00 0.00 49 1013.7
20260906030224 31 191 3.2 4.8 0.00 0.00 0.00 49 1013.3
20260906025723 31 241 1.6 4.8 0.00 0.00 0.00 49 1013.7
20260906025218 31 199 1.6 3.2 0.00 0.00 0.00 48 1013.6
20260906024717 31 210 3.2 4.8 0.00 0.00 0.00 48 1013.4
20260906024216 32 223 1.6 3.2 0.00 0.00 0.00 48 1013.5
20260906023712 32 211 3.2 3.2 0.00 0.00 0.00 48 1013.4
20260906023213 32 179 3.2 8.0 0.00 0.00 0.00 48 1013.3
20260906022708 32 224 1.6 1.6 0.00 0.00 0.00 48 1013.4
20260906022158 32 213 3.2 3.2 0.00 0.00 0.00 47 1013.0
20260906021654 32 201 1.6 3.2 0.00 0.00 0.00 47 1013.1
20260906021152 32 219 0.0 0.0 0.00 0.00 0.00 47 1013.1
20260906020647 32 230 0.0 0.0 0.00 0.00 0.00 47 1013.1
20260906020142 32 260 0.0 0.0 0.00 0.00 0.00 47 1013.1
20260906015641 32 152 0.0 0.0 0.00 0.00 0.00 47 1013.0
20260906015141 32 203 0.0 0.0 0.00 0.00 0.00 46 1013.1
20260906014641 32 176 0.0 0.0 0.00 0.00 0.00 46 1013.0
20260906014137 32 258 0.0 0.0 0.00 0.00 0.00 46 1013.0
20260906013632 33 271 0.0 1.6 0.00 0.00 0.00 45 1012.7
20260906013128 33 190 1.6 3.2 0.00 0.00 0.00 45 1012.6
20260906012627 33 161 1.6 3.2 0.00 0.00 0.00 44 1012.5
20260906012122 33 206 1.6 3.2 0.00 0.00 0.00 45 1012.6
20260906011619 33 231 0.0 3.2 0.00 0.00 0.00 44 1012.2
20260906011119 33 215 0.0 1.6 0.00 0.00 0.00 44 1012.4
20260906010614 33 223 1.6 3.2 0.00 0.00 0.00 43 1012.2
20260906010110 33 156 3.2 4.8 0.00 0.00 0.00 43 1012.5
20260906005610 34 181 0.0 3.2 0.00 0.00 0.00 42 1012.2
20260906005109 34 218 3.2 4.8 0.00 0.00 0.00 42 1012.3
20260906004608 35 190 3.2 4.8 0.00 0.00 0.00 41 1012.3
20260906004103 35 132 1.6 4.8 0.00 0.00 0.00 41 1012.4
20260906003558 35 201 1.6 8.0 0.00 0.00 0.00 41 1012.3
20260906003055 35 196 3.2 9.7 0.00 0.00 0.00 40 1012.3
20260906002555 35 113 4.8 11.3 0.00 0.00 0.00 40 1012.3
20260906002049 35 175 4.8 9.7 0.00 0.00 0.00 40 1012.4
20260906001545 35 356 3.2 8.0 0.00 0.00 0.00 40 1012.4
20260906001039 35 247 3.2 9.7 0.00 0.00 0.00 40 1012.3
20260906000535 36 157 8.0 11.3 0.00 0.00 0.00 39 1012.4
20260906000030 36 137 4.8 9.7 0.00 0.00 0.00 39 1012.4
20260905235529 36 86 6.4 11.3 0.00 0.00 0.00 39 1012.1
20260905235025 36 97 3.2 9.7 0.00 0.00 0.00 39 1012.1
20260905234521 36 105 3.2 8.0 0.00 0.00 0.00 39 1012.0
20260905234020 36 84 4.8 9.7 0.00 0.00 0.00 38 1012.1
20260905233515 36 73 6.4 11.3 0.00 0.00 0.00 38 1012.0
20260905233015 36 74 4.8 9.7 0.00 0.00 0.00 38 1012.0
20260905232510 36 203 4.8 16.1 0.00 0.00 0.00 38 1011.8
20260905232006 36 174 8.0 11.3 0.00 0.00 0.00 38 1011.8
20260905231501 37 112 8.0 16.1 0.00 0.00 0.00 38 1011.9
20260905230958 37 133 1.6 9.7 0.00 0.00 0.00 37 1011.8
20260905230456 37 211 3.2 12.9 0.00 0.00 0.00 38 1011.9
20260905225954 36 136 3.2 9.7 0.00 0.00 0.00 37 1011.8
20260905225449 36 142 4.8 17.7 0.00 0.00 0.00 38 1012.1
20260905224944 37 183 9.7 17.7 0.00 0.00 0.00 37 1011.9
20260905224440 37 211 11.3 16.1 0.00 0.00 0.00 36 1011.8
20260905223939 37 161 4.8 9.7 0.00 0.00 0.00 37 1011.8
20260905223438 37 140 1.6 8.0 0.00 0.00 0.00 37 1012.1
20260905222938 37 140 11.3 17.7 0.00 0.00 0.00 36 1011.7
20260905222438 37 78 4.8 11.3 0.00 0.00 0.00 38 1011.9
20260905221934 36 149 11.3 16.1 0.00 0.00 0.00 38 1012.0
20260905221430 36 208 12.9 16.1 0.00 0.00 0.00 37 1011.9
20260905220926 37 116 6.4 11.3 0.00 0.00 0.00 38 1012.0
20260905220422 36 24 0.0 3.2 0.00 0.00 0.00 39 1011.7
20260905215921 37 345 3.2 8.0 0.00 0.00 0.00 37 1011.9
20260905215416 37 115 4.8 11.3 0.00 0.00 0.00 38 1012.0
20260905214913 37 179 6.4 14.5 0.00 0.00 0.00 39 1012.0
20260905214408 37 90 6.4 12.9 0.00 0.00 0.00 38 1012.2
20260905213908 37 153 12.9 22.5 0.00 0.00 0.00 39 1012.2
20260905213404 37 134 4.8 9.7 0.00 0.00 0.00 38 1012.2
20260905212859 37 133 6.4 12.9 0.00 0.00 0.00 37 1012.3
20260905212354 37 208 4.8 4.8 0.00 0.00 0.00 39 1012.2
20260905211853 37 199 11.3 16.1 0.00 0.00 0.00 39 1012.5
20260905211349 37 127 6.4 17.7 0.00 0.00 0.00 39 1012.7
20260905210846 36 178 8.0 16.1 0.00 0.00 0.00 39 1012.3
20260905210345 37 236 9.7 14.5 0.00 0.00 0.00 39 1012.2
20260905205844 37 194 4.8 16.1 0.00 0.00 0.00 39 1012.7